User: anonymous   Login
Location: Unspecified
(0.0000°N, 0.0000°E)
Time: 00:00:13
(UTC+00:00)
Language:

Vanguard 2 Rocket - Orbit

View from above orbital plane
View from above orbital plane
View from above satellite
View from above satellite

Ground track
Ground track

The orbit data is extracted from the following two-line orbital elements,

1    12U 59001B   19258.07751039  .00000176  00000-0  11112-3 0  9998
2    12  32.8966 237.9232 1666737  62.9106 313.1633 11.44299117490896
Epoch (UTC): 15 September 2019 01:51:36
Eccentricity: 0.1666737
inclination: 32.8966°
perigee height: 554 km
apogee height: 3327 km
right ascension of ascending node: 237.9232°
argument of perigee: 62.9106°
revolutions per day: 11.44299117
mean anomaly at epoch: 313.1633°
orbit number at epoch: 49089

The dashed part of the orbit path shows where the satellite is in the earth's shadow,  

DLR